User: anonymous   Login
Location: Newark
(25.6108°S, 54.5803°W)
Time: 15:43:52
(UTC+00:00)
Language:

Courier 1B - Orbit

View from above orbital plane
View from above orbital plane
View from above satellite
View from above satellite

Ground track
Ground track

The orbit data is extracted from the following two-line orbital elements,

1    58U 60013A   20294.96100038 +.00000099 +00000-0 +24489-4 0  9996
2    58 028.3261 177.8981 0164903 028.3636 332.5776 13.46323607956074
Epoch (UTC): 20 October 2020 23:03:50
Eccentricity: 0.0164903
inclination: 28.3261°
perigee height: 963 km
apogee height: 1209 km
right ascension of ascending node: 177.8981°
argument of perigee: 28.3636°
revolutions per day: 13.46323607
mean anomaly at epoch: 332.5776°
orbit number at epoch: 95607

The dashed part of the orbit path shows where the satellite is in the earth's shadow,  

DLR